Starlink 32734

operational
NORAD ID: 62476 Int'l Des: 2024-254 Owner: SPXS Country: US Constellation: starlink
LEOCIRCULAR

Über Starlink 32734

Beschreibung wird geladen...

Live-Position

3D-Globus wird geladen...

Nächste Überflüge

Höhenverlauf

Altitude vs Time

uPlot chart will show altitude changes over time

Zweizeiliger Elementsatz

1 62476U 24254Q 25346.15262524 .00022440 00000-0 82209-3 0 9995
2 62476 42.9981 150.8766 0001234 272.8486 87.2225 15.27596425 54269
Epoch: 12. Dez. 2025 • Age: 22 hours

Aktueller Status

Höhe 491.9 km
Geschwindigkeit 7.62 km/s
Subsatellitenpunkt -34.54°S, 4.28°W
Startdatum 31. Dez. 2024
Alter 0.9 years
Typ internet

Technische Details

Klassifizierung Payload
Masse 730.00 kg
Trockenmasse 700.00 kg
Gesamtmasse 730.00 kg
Länge 0.30 m
Durchmesser 4.10 m
Spannweite 29.00 m
Form Box + pan
Hersteller SPXS
Bus-Typ Starlink V2M
Phasenstatus In Orbit
Besitzer/Staat SPXS/US

Große Konstellationen

Loading constellations...